This is the latest recevied weather packets stored in our database for station/object 4S6DRJ-13. If no packets are shown the sender has not sent any weather packets the latest 10 day(s).
| Time | Temp. | Humidity | Pressure | Rain* | Wind** | Luminosity | Snow |
|---|---|---|---|---|---|---|---|
| 1788244907 | 31.67° C | 69% | 1009.4 hPa | 0 mm | 2.68 m/s, 230° | 305 W/m² | - |
| 1788244847 | 31.67° C | 69% | 1009.2 hPa | 0 mm | 1.79 m/s, 152° | 1138 W/m² | - |
| 1788244785 | 31.67° C | 69% | 1009.3 hPa | 0 mm | 3.58 m/s, 305° | 1142 W/m² | - |
| 1788244725 | 31.67° C | 68% | 1009.2 hPa | 0 mm | 1.79 m/s, 231° | 1139 W/m² | - |
| 1788244664 | 31.11° C | 70% | 1009.3 hPa | 0 mm | 1.34 m/s, 219° | 1134 W/m² | - |
| 1788244603 | 31.11° C | 70% | 1009.2 hPa | 0 mm | 1.34 m/s, 2° | 960 W/m² | - |
| 1788244541 | 31.11° C | 70% | 1009.3 hPa | 0 mm | 1.34 m/s, 3° | 1128 W/m² | - |
| 1788244481 | 31.11° C | 70% | 1009.2 hPa | 0 mm | 2.68 m/s, 327° | 407 W/m² | - |
| 1788244419 | 31.11° C | 70% | 1009.2 hPa | 0 mm | 2.68 m/s, 298° | 897 W/m² | - |
| 1788244358 | 31.11° C | 70% | 1009.3 hPa | 0 mm | 1.79 m/s, 35° | 1131 W/m² | - |
| 1788244297 | 31.11° C | 69% | 1009.3 hPa | 0 mm | 3.13 m/s, 328° | 1116 W/m² | - |
| 1788244236 | 30.56° C | 73% | 1009.2 hPa | 0 mm | 0.89 m/s, 205° | 988 W/m² | - |
| 1788244175 | 30.56° C | 74% | 1009.3 hPa | 0 mm | 0.89 m/s, 77° | 975 W/m² | - |
| 1788244114 | 30.56° C | 73% | 1009.2 hPa | 0 mm | 1.34 m/s, 262° | 713 W/m² | - |
| 1788244053 | 30.56° C | 73% | 1009.4 hPa | 0 mm | 1.34 m/s, 215° | 589 W/m² | - |
| 1788243992 | 31.11° C | 72% | 1009.3 hPa | 0 mm | 2.24 m/s, 297° | 419 W/m² | - |
| 1788243931 | 31.11° C | 71% | 1009.5 hPa | 0 mm | 5.36 m/s, 243° | 825 W/m² | - |
| 1788243869 | 30.56° C | 72% | 1009.7 hPa | 0 mm | 3.58 m/s, 194° | 942 W/m² | - |
| 1788243809 | 30.56° C | 74% | 1009.4 hPa | 0 mm | 0.89 m/s, 224° | 1150 W/m² | - |
| 1788243748 | 30.56° C | 73% | 1009.4 hPa | 0 mm | 1.79 m/s, 265° | 502 W/m² | - |
| 1788243687 | 31.11° C | 73% | 1009.4 hPa | 0 mm | 2.24 m/s, 154° | 1151 W/m² | - |
| 1788243626 | 31.11° C | 72% | 1009.5 hPa | 0 mm | 4.02 m/s, 197° | 509 W/m² | - |
| 1788243565 | 31.11° C | 73% | 1009.5 hPa | 0 mm | 1.79 m/s, 241° | 411 W/m² | - |
| 1788243504 | 31.11° C | 72% | 1009.5 hPa | 0 mm | 1.79 m/s, 224° | 492 W/m² | - |
| 1788243443 | 30.56° C | 72% | 1009.4 hPa | 0 mm | 1.34 m/s, 104° | 1142 W/m² | - |
* Rain latest hour (hover to see other rain measurements)
** Current wind speed in m/s (hover to see current wind gust speed)